Flag for Russia Weather past 2 weeks in Astrakhan, Russia

Now
39 °F

Light rain. Clear.


Feels Like: 32 °F
Forecast: 33 / 44 °F
Wind: 13 mph from Southwest

Location: Astrakhan

Current Time: Dec 25, 2014 at 1:14:06 PM

Latest Report: Dec 25, 2014 at 12:30 PM


Visibility: N/A

Pressure: 29.95 "Hg

Humidity: 81%

Dew point: 34 °F

Location of AstrakhanLocation

Historic Weather in Astrakhan — Graph

°F

Astrakhan temperature yesterday

Maximum temperature yesterday: 43 °F (at 10:00 AM)
Minimum temperature yesterday: 37 °F (at 7:30 PM)
Average temperature yesterday: 40 °F

Past Weeks' High & Low Weather Summary

 TemperatureHumidityPressure
High46 °F (Dec 20, 2:00 PM)100% (Dec 11, 11:00 PM)30.51 "Hg (Dec 11, 11:00 PM)
Low19 °F (Dec 17, 6:30 AM)56% (Dec 10, 2:30 PM)29.56 "Hg (Dec 24, 11:30 AM)
Average34 °F88%30.17 "Hg
* Reported Dec 10 12:00 Noon — Dec 25 12:00 Noon, Astrakhan, Weather by CustomWeather, © 2014

Note: Actual official high and low records may vary slightly from our data, if they occured in-between our weather recording intervals... More about our weather records

Advertising

Astrakhan weather history for previous 24 hours

 ConditionsComfort  
Time TempWeatherWind HumidityBarometerVisibility
12:00 PM
Dec 25
39 °FSunny.15 mph81%29.98 "Hg10 mi
11:30 AM39 °FSunny.15 mph81%29.98 "Hg10 mi
11:00 AM39 °FSunny.10 mph81%29.98 "Hg10 mi
10:30 AM37 °FSunny.10 mph87%29.98 "Hg10 mi
10:00 AM37 °FSunny.13 mph81%29.98 "Hg10 mi
9:30 AM36 °FSunny.13 mph87%29.95 "Hg10 mi
9:00 AM36 °FSunny.10 mph87%29.95 "Hg10 mi
8:30 AM36 °FBroken clouds.10 mph87%29.95 "HgN/A
8:00 AM34 °FPartly cloudy.13 mph87%29.95 "HgN/A
7:30 AM34 °FPartly cloudy.10 mph87%29.95 "HgN/A
6:30 AM36 °FPassing clouds.13 mph81%29.95 "HgN/A
6:00 AM34 °FClear.15 mph87%29.95 "Hg10 mi
5:30 AM34 °FPassing clouds.15 mph87%29.92 "HgN/A
5:00 AM36 °FPassing clouds.15 mph81%29.92 "HgN/A
4:30 AM36 °FPassing clouds.15 mph81%29.89 "HgN/A
4:00 AM36 °FPassing clouds.15 mph87%29.89 "HgN/A
3:30 AM36 °FPassing clouds.15 mph87%29.89 "HgN/A
3:00 AM37 °FPassing clouds.20 mph81%29.86 "HgN/A
2:30 AM37 °FClear.17 mph81%29.86 "Hg10 mi
2:00 AM37 °FClear.17 mph81%29.86 "Hg10 mi
1:30 AM37 °FClear.20 mph81%29.83 "Hg10 mi
1:00 AM37 °FClear.24 mph81%29.83 "Hg10 mi
12:30 AM37 °FPassing clouds.20 mph81%29.80 "HgN/A
12:00 AM37 °FPassing clouds.20 mph87%29.77 "HgN/A
11:30 PM
Dec 24
39 °FOvercast.22 mph87%29.77 "HgN/A
11:00 PM41 °FLight rain. Overcast.24 mph81%29.74 "HgN/A
10:30 PM41 °FLight rain. Overcast.26 mph87%29.71 "HgN/A
10:00 PM41 °FPassing clouds.15 mph87%29.68 "HgN/A
9:30 PM39 °FLight rain. Passing clouds.17 mph87%29.68 "HgN/A
9:00 PM39 °FLight rain. Passing clouds.24 mph87%29.65 "HgN/A
8:30 PM39 °FPassing clouds.15 mph87%29.65 "HgN/A
8:00 PM39 °FLight rain. Mostly cloudy.15 mph87%29.65 "HgN/A
7:30 PM37 °FLight rain. Mostly cloudy.15 mph93%29.62 "HgN/A
7:00 PM39 °FLight rain. Mostly cloudy.15 mph87%29.62 "HgN/A
6:30 PM39 °FMostly cloudy.10 mph87%29.62 "HgN/A
6:00 PM39 °FLight rain. Mostly cloudy.13 mph87%29.59 "HgN/A
5:30 PM39 °FLight rain. Mostly cloudy.10 mph93%29.59 "HgN/A
5:00 PM41 °FSprinkles. Broken clouds.13 mph87%29.59 "HgN/A
4:30 PM41 °FSprinkles. Broken clouds.13 mph87%29.59 "HgN/A
4:00 PM41 °FSprinkles. Broken clouds.10 mph87%29.56 "HgN/A
3:30 PM41 °FSprinkles. Broken clouds.10 mph87%29.56 "HgN/A
3:00 PM41 °FSprinkles. Broken clouds.13 mph87%29.56 "HgN/A
2:30 PM41 °FSprinkles. Mostly cloudy.13 mph93%29.56 "HgN/A
2:00 PM41 °FSprinkles. Mostly cloudy.13 mph87%29.56 "HgN/A
1:30 PM41 °FMostly cloudy.10 mph87%29.56 "HgN/A
1:00 PM43 °FMostly cloudy.15 mph81%29.56 "HgN/A
Weather by CustomWeather, © 2014

See weather overviewHow to use our weather pages